Location: Unspecified
(48.5539°N, 71.6350°W)
Time: 16:34:46
(UTC-04:00)

ISS - Pass Details

Date: 28 May 2019
Orbit: 408 x 418 km, 51.6° (Epoch: 18 June)

Event Time Altitude Azimuth Distance (km) Brightness Sun altitude
Rises 22:44:14 0° 291° (WNW) 2,359 0.9 -15.0°
Reaches altitude 10° 22:46:20 10° 290° (WNW) 1,496 -0.3 -15.1°
Maximum altitude 22:49:41 73° 206° (SSW) 440 -3.8 -15.4°
Enters shadow 22:50:58 35° 128° (SE) 702 -3.1 -15.5°
